Cloud_Cover
0 0 0 0 0 0 0 0 0 0 3 1 2 2 96 99 100 100 100 100 100 100 94 100 100 100 100 100 19 8 100 100 100 100 100 100 100 100 100 92 94 100 100 100 100 8 18 98 93
0 0 0 0 0 0 0 0 0 0 0 0 0 0 15 100 65 100 100 100 100 99 7 100 100 100 100 100 80 5 5 90 46 96 99 100 86 100 100 50 100 95 56 77 99 86 64 100 5
0 0 0 0 0 0 0 0 0 0 0 0 0 0 2 6 87 89 100 100 100 52 10 13 100 100 100 89 78 8 39 81 48 6 77 100 94 100 16 76 100 100 57 24 97 100 69 69 5
0 0 0 0 0 0 0 0 0 0 0 0 0 0 0 0 5 5 6 100 100 100 69 5 96 33 100 100 97 8 6 97 89 81 68 6 5 98 5 10 60 100 100 100 18 100 98 25 5
0 0 0 0 0 0 0 0 0 0 0 0 0 0 0 0 0 0 2 84 100 100 100 100 36 56 73 100 100 15 5 82 75 99 98 44 11 51 15 5 57 70 100 98 5 78 81 22 6
0 0 0 0 0 0 0 0 0 0 0 0 0 0 0 0 0 4 0 0 4 82 44 100 53 10 23 100 100 99 5 6 28 91 51 36 50 43 87 5 6 98 100 55 7 27 4 50 1
0 0 0 0 0 0 0 0 0 0 0 0 0 0 0 0 0 0 0 0 0 11 57 40 100 18 14 100 100 100 98 5 40 60 100 33 5 5 5 20 12 28 92 14 8 5 3 1 2
0 0 0 0 0 0 0 0 0 0 0 0 0 0 0 0 1 18 20 26 16 20 17 23 100 61 99 100 60 99 100 96 5 4 99 86 68 10 5 5 5 5 5 5 5 5 5 0 0
0 0 0 0 0 0 0 0 0 0 0 0 0 0 0 0 0 2 26 84 74 54 39 15 70 100 100 82 19 15 48 100 82 5 4 5 66 31 32 34 5 5 5 88 32 5 5 4 0
0 0 0 0 0 0 0 0 0 0 0 0 0 0 0 0 0 0 0 23 95 100 95 87 81 100 73 100 38 57 57 20 100 96 21 19 55 23 5 5 5 5 5 5 67 61 11 51 24
0 0 0 0 0 0 0 0 0 0 0 0 0 0 0 0 0 0 0 0 2 2 76 98 100 89 30 95 88 57 38 33 61 96 100 61 34 97 6 17 9 26 5 4 5 5 4 1 13
0 0 0 0 0 0 0 0 0 0 0 0 0 0 0 0 0 0 0 0 0 1 1 42 100 100 100 100 94 30 100 100 100 61 74 100 98 58 6 6 18 8 5 5 5 5 5 11 5
0 0 0 0 0 0 0 0 0 0 0 0 0 0 0 0 0 0 0 0 0 0 0 55 100 97 95 85 30 17 91 99 100 94 92 37 26 16 95 83 94 50 10 5 1 2 5 4 5
0 0 0 0 0 0 0 0 0 0 0 0 0 0 0 0 0 0 0 0 0 0 0 26 89 94 90 71 18 2 37 100 99 98 100 22 90 76 63 100 49 7 29 5 30 5 5 5 36
0 0 0 0 0 0 0 0 0 0 0 0 0 0 0 0 0 0 0 0 0 0 0 19 28 32 40 61 76 54 84 100 57 100 100 94 18 84 100 100 100 78 6 5 9 6 5 5 82
0 0 0 0 0 0 0 0 0 0 0 0 0 0 0 0 0 0 0 0 0 0 0 0 0 4 8 15 48 57 42 98 32 96 87 17 52 17 42 66 97 100 100 82 58 5 5 17 100
0 0 0 0 0 0 0 0 0 0 0 0 0 0 0 0 0 0 0 0 0 0 0 0 0 1 1 6 32 28 12 19 100 90 76 54 30 58 5 5 40 83 100 100 100 29 5 65 100
0 0 0 0 0 0 0 0 0 0 0 0 0 0 0 0 0 0 0 0 0 0 0 0 0 0 0 14 19 28 22 15 67 19 17 12 29 22 91 4 3 5 19 62 98 96 62 88 100
0 0 0 0 0 0 0 0 0 0 0 0 0 0 0 0 0 0 0 0 0 0 0 0 7 2 12 7 15 23 28 13 14 0 0 0 2 28 0 51 16 5 27 32 5 72 100 100 100
5 0 0 0 0 0 0 0 0 0 0 0 0 0 0 0 0 0 0 0 0 0 0 0 0 9 16 2 7 1 3 11 1 0 0 0 0 0 0 43 100 100 10 3 5 5 67 100 100
1 5 0 0 0 0 0 0 0 0 0 0 0 0 0 0 0 0 0 0 0 0 0 0 0 0 14 24 23 21 7 8 27 28 22 0 0 0 0 0 48 100 98 21 5 2 29 79 100
0 0 0 0 0 0 0 0 0 0 0 0 0 0 0 0 0 0 0 0 0 0 0 0 0 0 0 0 6 28 22 4 9 0 0 1 0 0 0 0 2 81 90 100 70 98 100 19 100
0 0 0 0 0 0 0 0 0 0 0 0 0 0 0 0 0 0 0 0 0 0 0 0 0 0 0 0 0 0 0 0 0 0 0 0 12 0 0 0 0 7 100 89 100 89 100 34 99
5 0 0 0 0 0 0 0 0 0 0 0 0 0 0 0 0 0 0 0 0 0 0 0 0 0 0 0 0 0 0 0 1 3 19 20 22 25 5 0 0 0 84 100 100 100 90 59 66
5 0 0 0 0 0 0 0 0 0 0 0 0 0 0 0 0 0 0 0 0 0 0 0 0 0 0 0 0 0 0 0 0 0 5 8 22 61 53 16 33 20 1 31 100 100 69 61 85
5 3 3 0 0 0 0 0 0 0 0 0 0 0 0 0 0 0 0 0 0 0 0 0 0 2 4 5 0 0 0 0 0 0 2 2 3 0 0 15 30 21 1 0 97 100 74 100 100
3 0 0 0 0 0 0 0 0 0 0 0 0 0 0 0 0 0 0 0 0 0 0 0 0 0 0 0 0 0 0 0 0 0 0 0 1 0 0 0 46 55 36 16 28 55 100 100 100
0 0 0 0 0 0 0 0 0 0 12 2 0 0 0 0 0 0 0 0 0 0 0 0 0 0 0 0 0 0 0 0 0 0 0 1 0 0 0 12 25 48 69 49 22 5 100 100 100
17 1 0 1 3 0 0 1 0 0 0 2 0 0 0 0 0 0 0 0 0 0 0 0 0 0 0 0 0 0 0 0 0 0 0 0 2 4 23 9 29 33 64 51 64 61 100 100 100
100 98 16 2 0 0 0 14 0 0 0 5 0 0 0 0 0 2 0 0 0 0 0 0 0 0 0 0 0 0 0 0 0 0 0 0 0 0 5 9 49 8 24 10 40 100 100 100 100